Weather reports worldwide

Advertisment
Logan Botanic Garden, United Kingdom (99193): temperature & dewpoint: 09.11.2018 05:00:00 - 15.11.2018 05:00:00 (GMT)Logan Botanic Garden, United Kingdom (99193): temperature -20cm: 09.11.2018 05:00:00 - 15.11.2018 05:00:00 (GMT)Logan Botanic Garden, United Kingdom (99193): precipitation: 09.11.2018 05:00:00 - 15.11.2018 05:00:00 (GMT)
Date & Time tt [°C] td [°C] tt -20cm [°C] rr [mm]
15.11.2018 05:00:00 - - - -
15.11.2018 04:00:00 11,7 11,2 - 0,0
15.11.2018 03:00:00 11,8 11,3 - 0,0
15.11.2018 02:00:00 - - - -
15.11.2018 01:00:00 - - - -
15.11.2018 00:00:00 12,7 11,2 - 0,0
14.11.2018 23:00:00 12,6 11,1 - 0,0
14.11.2018 22:00:00 12,4 11,1 - 0,0
14.11.2018 21:00:00 12,2 11,3 - 0,2
14.11.2018 20:00:00 12,9 11,0 - 0,0
14.11.2018 19:00:00 12,7 11,1 - 0,0
14.11.2018 18:00:00 12,7 11,3 - 0,0
14.11.2018 17:00:00 12,6 11,5 - 0,0
14.11.2018 16:00:00 12,5 11,6 - 0,0
14.11.2018 15:00:00 12,7 11,6 - 0,0
14.11.2018 14:00:00 12,7 11,7 - 0,0
14.11.2018 13:00:00 12,8 11,7 - 0,0
14.11.2018 12:00:00 12,7 11,8 - 0,0
14.11.2018 11:00:00 12,7 11,9 - 0,0
14.11.2018 10:00:00 12,6 11,9 - 0,0
14.11.2018 09:00:00 12,7 12,0 10,0 0,2
14.11.2018 08:00:00 12,6 12,0 - 0,0
14.11.2018 07:00:00 12,4 12,1 - 1,8
14.11.2018 06:00:00 12,3 12,0 - 3,0
14.11.2018 05:00:00 12,2 11,8 - 1,6
14.11.2018 04:00:00 12,1 11,8 - 2,2
14.11.2018 03:00:00 11,7 11,4 - 1,0
14.11.2018 02:00:00 11,4 11,0 - 0,6
14.11.2018 01:00:00 11,3 10,6 - 0,6
14.11.2018 00:00:00 11,1 10,1 - 0,4
13.11.2018 23:00:00 11,9 10,6 - 0,0
13.11.2018 22:00:00 12,2 10,0 - 0,0
13.11.2018 21:00:00 12,1 10,1 - 0,0
13.11.2018 20:00:00 12,1 9,8 - 0,0
13.11.2018 19:00:00 11,8 9,3 - 0,0
13.11.2018 18:00:00 11,7 9,0 - 0,0
13.11.2018 17:00:00 11,4 8,6 - 0,0
13.11.2018 16:00:00 11,2 8,0 - 0,0
13.11.2018 15:00:00 10,6 7,4 - 0,0
13.11.2018 14:00:00 10,9 7,9 - 0,0
13.11.2018 13:00:00 11,1 7,7 - 0,0
13.11.2018 12:00:00 11,0 7,3 - 0,0
13.11.2018 11:00:00 10,8 7,4 - 0,0
13.11.2018 10:00:00 10,1 7,2 - 0,0
13.11.2018 09:00:00 8,8 6,8 9,9 0,0
13.11.2018 08:00:00 8,7 6,6 - 0,0
13.11.2018 07:00:00 8,6 6,6 - 0,0
13.11.2018 06:00:00 9,3 6,8 - 0,0
13.11.2018 05:00:00 9,7 7,4 - 0,0
13.11.2018 04:00:00 9,4 7,4 - 0,0
13.11.2018 03:00:00 9,7 7,4 - 0,0
13.11.2018 02:00:00 9,7 7,5 - 0,0
13.11.2018 01:00:00 9,7 7,5 - 0,0
13.11.2018 00:00:00 9,7 7,7 - 0,0
12.11.2018 23:00:00 9,8 7,7 - 0,0
12.11.2018 22:00:00 10,2 7,6 - 0,0
12.11.2018 21:00:00 10,4 7,7 - 0,4
12.11.2018 20:00:00 9,9 8,0 - 2,6
12.11.2018 19:00:00 11,0 8,1 - 0,0
12.11.2018 18:00:00 11,2 7,1 - 0,0
12.11.2018 17:00:00 11,2 8,1 - 0,0
12.11.2018 16:00:00 11,2 7,9 - 0,0
12.11.2018 15:00:00 11,6 8,2 - 0,0
12.11.2018 14:00:00 11,7 8,4 - 0,0
12.11.2018 13:00:00 11,5 8,2 - 0,0
12.11.2018 12:00:00 11,6 7,8 - 0,0
12.11.2018 11:00:00 11,6 8,1 - 0,0
12.11.2018 10:00:00 11,6 8,1 - 0,0
12.11.2018 09:00:00 11,3 8,2 9,7 0,0
12.11.2018 08:00:00 11,3 8,5 - 0,0
12.11.2018 07:00:00 11,2 8,8 - 0,0
12.11.2018 06:00:00 11,4 8,7 - 0,0
12.11.2018 05:00:00 11,3 8,6 - 0,0
12.11.2018 04:00:00 11,4 8,4 - 0,0
12.11.2018 03:00:00 11,3 8,0 - 0,0
12.11.2018 02:00:00 11,6 8,6 - 0,0
12.11.2018 01:00:00 11,3 8,4 - 0,0
12.11.2018 00:00:00 11,5 8,2 - 0,0
11.11.2018 23:00:00 11,3 8,0 - 0,0
11.11.2018 22:00:00 11,5 8,2 - 0,0
11.11.2018 21:00:00 11,2 7,5 - 0,0
11.11.2018 20:00:00 11,4 7,5 - 0,0
11.11.2018 19:00:00 10,5 7,3 - 0,0
11.11.2018 18:00:00 9,4 6,2 - 0,0
11.11.2018 17:00:00 10,7 7,1 - 0,0
11.11.2018 16:00:00 10,2 6,4 - 0,0
11.11.2018 15:00:00 9,5 6,0 - 0,0
11.11.2018 14:00:00 10,3 6,2 - 0,0
11.11.2018 13:00:00 9,3 5,9 - 0,0
11.11.2018 12:00:00 8,5 7,6 - 0,2
11.11.2018 11:00:00 8,2 7,0 - 0,4
11.11.2018 10:00:00 8,2 7,2 - 3,0
11.11.2018 09:00:00 8,4 7,5 9,9 0,0
11.11.2018 08:00:00 9,1 7,2 - 0,0
11.11.2018 07:00:00 9,5 6,7 - 0,0
11.11.2018 06:00:00 9,4 7,4 - 2,0
11.11.2018 05:00:00 9,2 7,6 - 0,4
11.11.2018 04:00:00 8,9 6,9 - 0,4
11.11.2018 03:00:00 9,2 7,9 - 0,0
11.11.2018 02:00:00 9,0 7,4 - 2,8
11.11.2018 01:00:00 9,0 7,3 - 0,2
11.11.2018 00:00:00 8,5 7,4 - 1,8
10.11.2018 23:00:00 8,0 7,5 - 0,0
10.11.2018 22:00:00 7,0 6,9 - 0,4
10.11.2018 21:00:00 5,7 5,6 - 0,0
10.11.2018 20:00:00 5,4 5,1 - 0,0
10.11.2018 19:00:00 5,8 5,2 - 0,0
10.11.2018 18:00:00 6,9 6,2 - 0,0
10.11.2018 17:00:00 7,3 6,3 - 0,4
10.11.2018 16:00:00 7,6 6,5 - 0,8
10.11.2018 15:00:00 7,5 6,1 - 2,8
10.11.2018 14:00:00 8,1 6,8 - 1,6
10.11.2018 13:00:00 9,9 6,2 - 0,0
10.11.2018 12:00:00 10,3 7,1 - 0,0
10.11.2018 11:00:00 10,2 6,6 - 0,0
10.11.2018 10:00:00 10,6 6,8 - 0,0
10.11.2018 09:00:00 9,8 6,5 10,0 0,0
10.11.2018 08:00:00 9,3 6,9 - 0,0
10.11.2018 07:00:00 9,4 7,0 - 0,0
10.11.2018 06:00:00 9,5 6,3 - 0,0
10.11.2018 05:00:00 9,7 6,5 - 0,0
10.11.2018 04:00:00 9,8 6,3 - 0,0
10.11.2018 03:00:00 10,3 6,6 - 0,0
10.11.2018 02:00:00 10,9 6,5 - 0,0
10.11.2018 01:00:00 11,3 7,2 - 0,0
10.11.2018 00:00:00 11,6 8,6 - 0,0
09.11.2018 23:00:00 11,5 9,1 - 0,0
09.11.2018 22:00:00 11,9 10,4 - 0,4
09.11.2018 21:00:00 10,9 10,5 - 1,4
09.11.2018 20:00:00 10,0 9,7 - 3,6
09.11.2018 19:00:00 10,1 9,0 - 2,6
09.11.2018 18:00:00 10,0 8,8 - 4,2
09.11.2018 17:00:00 10,8 9,2 - 1,2
09.11.2018 16:00:00 11,2 9,1 - 0,0
09.11.2018 15:00:00 10,9 7,3 - 0,2
09.11.2018 14:00:00 10,4 9,6 - 2,0
09.11.2018 13:00:00 10,4 9,3 - 0,2
09.11.2018 12:00:00 10,8 9,1 - 0,2
09.11.2018 11:00:00 10,7 9,0 - 0,0
09.11.2018 10:00:00 10,8 9,0 - 0,0
09.11.2018 09:00:00 10,6 9,0 9,7 0,0
09.11.2018 08:00:00 10,6 8,5 - 0,2
09.11.2018 07:00:00 10,2 9,3 - 1,6
09.11.2018 06:00:00 10,7 9,1 - 0,0
09.11.2018 05:00:00 10,6 9,2 - 0,0

tt = temperature
td = dewpoint
tt -20cm = temperature -20cm
rr = precipitation

Next stations